Regional Weather Roundup
Issued by NWS Bismarck, ND

Home | Current Version | Previous Version | Text Only | Print | Product List | Glossary On
Versions: 1 2 3 4 5 6 7 8 9 10 11 12 13 14 15 16 17 18 19 20 21 22 23 24 25 26 27 28 29 30 31 32 33 34 35 36 37 38 39 40 41 42 43 44 45 46 47 48 49 50
000
ASUS43 KBIS 031210
RWRBIS

NWR BROADCAST TEXT
NATIONAL WEATHER SERVICE BISMARCK ND
700 AM CDT MON AUG 03 2015

NOTE: "FAIR" INDICATES FEW OR NO CLOUDS BELOW 12,000 FEET WITH NO
SIGNIFICANT WEATHER AND/OR OBSTRUCTIONS TO VISIBILITY.


CITY           SKY/WX    TMP DP  RH WIND       PRES   REMARKS
WILLISTON      CLEAR     52  48  86 CALM      30.03S
MINOT          CLEAR     53  48  83 W7        29.99F
MINOT AFB      CLEAR     50  49  99 NW6       29.99S
BISMARCK       CLEAR     55  51  86 NW3       30.02R
DICKINSON      CLEAR     47  44  90 CALM      30.04R
GARRISON         N/A     51  48  89 NW6       30.01S
HETTINGER ARPT CLEAR     44  42  93 CALM      30.06S
JAMESTOWN      CLEAR     54  50  86 NW7       29.97R
BEACH          FAIR      46  46 100 S3        30.06R
CROSBY         FAIR      46  46 100 S5        30.04R
HARVEY         FAIR      50  50 100 NW5       29.99R
HAZEN          FAIR      46  45  93 CALM      30.04R
LINTON         FAIR      46  46 100 E3        30.01S
MANDAN         FAIR      55  50  82 NW6       30.03R
OAKES            N/A     54  54 100 W5        29.97R
STANLEY        FAIR      50  50 100 CALM      30.04S
$$

CITY           SKY/WX    TMP DP  RH WIND       PRES   REMARKS
GRAND FORKS    CLEAR     51  48  89 W7        29.91R
GRAND FORKS AF CLEAR     51  48  90 W7        29.92R
DEVILS LAKE    CLEAR     54  45  71 NW8       29.96R
FARGO          CLEAR     53  47  79 CALM      29.93R
CAVALIER       FAIR      54  48  82 NW7       29.92R
GRAFTON        FAIR      54  50  87 NW6       29.92S
GWINNER          N/A     54  52  94 W6        29.96R
LANGDON        FAIR      46  46 100 NW8       29.95S
ROLLA          FAIR      50  46  87 NW8       29.99R
WALHALLA       FAIR      54  54 100 MISG      29.92F
$$

CITY           SKY/WX    TMP DP  RH WIND       PRES   REMARKS
ABERDEEN       CLEAR     52  49  89 CALM      29.98R
MOBRIDGE       CLEAR     56  56 100 CALM      29.99R
BUFFALO          N/A     56  48  74 NE7       29.99S
RAPID CITY     CLEAR     58  52  80 NE7       30.03R
GLASGOW        CLEAR     56  48  74 SE10      30.02R
SIDNEY         CLEAR     52  46  82 CALM      30.04R
WOLF POINT     CLEAR     52  46  80 NE5       30.03F
GLENDIVE         N/A    N/A N/A N/A MISG        N/A
MILES CITY     CLEAR     59  47  64 NE9       30.01S
BAKER          CLEAR     51  45  79 SE6       30.07R
$$

CITY           SKY/WX    TMP DP  RH WIND       PRES   REMARKS
BILLINGS       PTCLDY    62  45  53 N6        30.01R
GREAT FALLS    CLEAR     57  45  64 CALM      29.94S
REGINA         PTCLDY    52  50  93 VRB2      30.02S
ESTEVAN        PTCLDY    48  46  93 W6        30.03R
$$



USA.gov is the U.S. government's official web portal to all federal, state and local government web resources and services.